EW6239 Weather Reports


Display with metric or nautical units.
time (UTC)temp
F
wind
direction
speed
MPH
gust
MPH
rain 1hr
in
rain 24hr
in
rain mn
in
humidity
%
barometer
mb
20260901065517 66 0.0 0.0 0.00 0.01 0.00 92 1009.4
20260901064517 66 0.0 0.0 0.00 0.01 0.00 92 1009.8
20260901063517 66 0.0 0.0 0.00 0.01 0.00 92 1010.0
20260901062517 66 0.0 0.0 0.00 0.01 0.00 92 1010.2
20260901061537 66 0.0 0.0 0.00 0.01 0.00 92 1010.2
20260901060517 66 0.0 0.0 0.00 0.01 0.00 92 1010.3
20260901055517 66 0.0 0.0 0.00 0.01 0.00 92 1010.4
20260901054517 66 0.0 1.0 0.00 0.01 0.00 92 1010.2
20260901053517 66 0.0 1.0 0.00 0.01 0.00 92 1010.2
20260901052517 65 0.0 0.0 0.00 0.01 0.00 92 1010.2
20260901051517 65 0.0 0.0 0.00 0.01 0.00 92 1010.2
20260901050516 65 0.0 0.0 0.00 0.01 0.00 92 1010.4
20260901045516 65 0.0 0.0 0.00 0.01 0.00 92 1010.6
20260901044537 65 0.0 0.0 0.00 0.01 0.00 92 1010.5
20260901043516 65 0.0 0.0 0.00 0.01 0.00 91 1010.4
20260901042517 65 0.0 0.0 0.00 0.01 0.00 91 1010.2
20260901041516 65 0.0 0.0 0.00 0.01 0.00 91 1010.1
20260901040516 65 0.0 0.0 0.00 0.01 0.00 91 1010.1
20260901035538 65 0.0 0.0 0.00 0.01 0.01 91 1010.1
20260901034517 65 0.0 0.0 0.00 0.01 0.01 91 1010.3
20260901033517 65 0.0 0.0 0.00 0.01 0.01 91 1010.4
20260901032517 65 0.0 0.0 0.00 0.01 0.01 91 1010.5
20260901031517 66 0.0 0.0 0.00 0.01 0.01 90 1010.5
20260901030517 66 0.0 0.0 0.00 0.01 0.01 90 1010.6
20260901025517 66 0.0 0.0 0.00 0.01 0.01 90 1010.8
20260901024517 66 0.0 0.0 0.00 0.01 0.01 89 1010.7
20260901023517 66 0.0 0.0 0.00 0.01 0.01 89 1010.8
20260901022517 66 0.0 0.0 0.00 0.01 0.01 89 1010.7
20260901021537 67 0.0 0.0 0.00 0.01 0.01 89 1010.8
20260901020517 67 0.0 0.0 0.00 0.01 0.01 89 1010.8
20260901015517 67 0.0 0.0 0.00 0.01 0.01 88 1010.9
20260901014517 67 0.0 0.0 0.00 0.01 0.01 88 1010.8
20260901013537 67 0.0 0.0 0.00 0.01 0.01 88 1010.5
20260901012517 68 0.0 0.0 0.00 0.01 0.01 87 1010.6
20260901011517 68 0.0 0.0 0.00 0.01 0.01 87 1010.7
20260901010538 68 0.0 0.0 0.00 0.01 0.01 86 1010.8
20260901005517 68 0.0 0.0 0.00 0.01 0.01 86 1010.7
20260901004517 69 0.0 0.0 0.00 0.01 0.01 86 1010.7
20260901003517 69 0.0 0.0 0.00 0.01 0.01 86 1010.8
20260901002517 69 0.0 0.0 0.00 0.01 0.01 86 1010.8
20260901001517 69 0.0 0.0 0.00 0.01 0.01 86 1010.8
20260901000517 69 0.0 0.0 0.00 0.01 0.01 86 1010.7
20260831235537 69 0.0 0.0 0.00 0.01 0.01 85 1010.6
20260831234537 69 0.0 0.0 0.00 0.01 0.01 85 1010.7
20260831233517 69 0.0 0.0 0.00 0.01 0.01 85 1011.0
20260831232517 69 0.0 0.0 0.00 0.01 0.01 85 1011.1
20260831231537 69 0.0 0.0 0.00 0.01 0.01 85 1011.0
20260831230517 69 0.0 0.0 0.00 0.01 0.01 85 1011.1
20260831225517 69 0.0 0.0 0.00 0.01 0.01 85 1011.1
20260831224536 69 0.0 0.0 0.00 0.01 0.01 85 1011.2
20260831223517 69 0.0 0.0 0.00 0.01 0.01 86 1011.2
20260831222517 69 0.0 0.0 0.00 0.01 0.01 85 1011.2
20260831221516 69 0.0 0.0 0.00 0.01 0.01 85 1011.1
20260831220538 69 0.0 0.0 0.00 0.01 0.01 85 1011.3
20260831215517 70 0.0 1.0 0.00 0.01 0.01 85 1011.3
20260831214516 70 225 1.0 3.0 0.00 0.01 0.01 84 1011.4
20260831213537 71 225 1.0 5.0 0.00 0.01 0.01 83 1011.5
20260831212516 72 225 2.0 4.0 0.00 0.01 0.01 81 1011.4
20260831211516 73 225 1.0 3.0 0.00 0.01 0.01 80 1011.4
20260831210517 73 0.0 1.0 0.00 0.01 0.01 79 1011.3
20260831205516 73 225 1.0 2.0 0.00 0.01 0.01 79 1011.3
20260831204516 73 0.0 2.0 0.00 0.02 0.01 78 1011.6
20260831203516 73 225 1.0 2.0 0.00 0.02 0.01 78 1011.7
20260831202516 73 0.0 1.0 0.00 0.02 0.01 79 1011.8
20260831201516 73 0.0 2.0 0.00 0.02 0.01 79 1011.6
20260831200516 73 0.0 2.0 0.00 0.02 0.01 78 1011.6
20260831195516 73 0.0 2.0 0.00 0.02 0.01 79 1011.6
20260831194516 73 0.0 1.0 0.01 0.02 0.01 79 1011.8
20260831193516 73 225 1.0 6.0 0.01 0.02 0.01 78 1011.8
20260831192537 73 0.0 1.0 0.01 0.02 0.01 77 1011.8
20260831191516 73 0.0 1.0 0.01 0.07 0.01 77 1011.9
20260831190516 73 225 2.0 7.0 0.01 0.08 0.01 78 1012.1
20260831185536 72 225 1.0 5.0 0.01 0.09 0.01 77 1012.2
20260831184516 73 0.0 0.0 0.00 0.08 0.00 76 1012.3
20260831183516 72 225 1.0 4.0 0.00 0.08 0.00 82 1012.5
20260831182516 71 0.0 0.0 0.00 0.08 0.00 80 1012.8
20260831181516 71 0.0 0.0 0.00 0.08 0.00 82 1012.9
20260831180516 71 0.0 0.0 0.00 0.08 0.00 82 1012.9
20260831175536 70 0.0 0.0 0.00 0.08 0.00 83 1013.1
20260831174516 70 0.0 0.0 0.00 0.08 0.00 84 1013.3
20260831173516 69 0.0 0.0 0.00 0.08 0.00 86 1013.2
20260831172518 69 225 1.0 3.0 0.00 0.08 0.00 87 1013.5
20260831171518 69 0.0 1.0 0.00 0.08 0.00 88 1013.5
20260831170518 68 225 1.0 3.0 0.00 0.08 0.00 90 1013.6
20260831165518 68 225 1.0 4.0 0.00 0.08 0.00 91 1013.6
20260831164538 67 0.0 2.0 0.00 0.08 0.00 92 1013.7
20260831163518 67 225 1.0 3.0 0.00 0.08 0.00 92 1013.7
20260831162518 66 225 1.0 3.0 0.00 0.08 0.00 92 1013.8
20260831161518 66 225 1.0 4.0 0.00 0.08 0.00 92 1014.0
20260831160518 66 0.0 0.0 0.00 0.08 0.00 92 1013.9
20260831155538 65 225 1.0 4.0 0.00 0.08 0.00 92 1013.9
20260831154518 65 225 1.0 4.0 0.00 0.08 0.00 91 1013.8
20260831153518 65 0.0 3.0 0.00 0.08 0.00 91 1013.8
20260831152518 64 0.0 4.0 0.00 0.08 0.00 91 1013.6
20260831151538 64 225 1.0 3.0 0.00 0.08 0.00 91 1013.6
20260831150539 64 225 1.0 4.0 0.00 0.08 0.00 91 1013.8
20260831145538 64 225 2.0 4.0 0.00 0.08 0.00 91 1013.9
20260831144538 64 0.0 4.0 0.00 0.08 0.00 91 1013.9
20260831143518 63 225 1.0 4.0 0.00 0.08 0.00 91 1013.8
20260831142518 63 0.0 0.0 0.00 0.08 0.00 91 1013.8
20260831141518 63 0.0 3.0 0.00 0.08 0.00 91 1013.9
20260831140518 63 225 2.0 5.0 0.00 0.08 0.00 91 1013.9
20260831135518 62 225 1.0 4.0 0.00 0.08 0.00 91 1013.9
20260831134538 62 225 1.0 4.0 0.00 0.08 0.00 91 1013.7
20260831133518 62 225 1.0 3.0 0.00 0.08 0.00 91 1013.7
20260831132538 61 0.0 7.0 0.00 0.08 0.00 91 1013.6
20260831131518 61 0.0 3.0 0.00 0.08 0.00 91 1013.6
20260831130518 61 0.0 0.0 0.00 0.08 0.00 91 1013.7
20260831125518 60 0.0 0.0 0.00 0.08 0.00 91 1013.9
20260831124518 60 0.0 0.0 0.00 0.08 0.00 91 1014.1
20260831123518 59 0.0 2.0 0.00 0.08 0.00 91 1014.0
20260831122517 59 293 1.0 3.0 0.00 0.08 0.00 91 1013.9
20260831121538 59 293 1.0 5.0 0.00 0.08 0.00 91 1013.9
20260831120518 58 0.0 3.0 0.00 0.08 0.00 92 1013.9
20260831115517 58 0.0 0.0 0.00 0.08 0.00 92 1014.0
20260831114517 58 0.0 0.0 0.00 0.08 0.00 92 1013.9
20260831113518 58 0.0 0.0 0.00 0.08 0.00 92 1013.9
20260831112518 58 0 1.0 5.0 0.00 0.08 0.00 92 1013.8
20260831111517 58 0.0 3.0 0.00 0.08 0.00 92 1013.7
20260831110517 57 0.0 1.0 0.00 0.08 0.00 92 1013.7
20260831105517 57 0.0 1.0 0.00 0.08 0.00 92 1013.5
20260831104538 57 0.0 0.0 0.00 0.08 0.00 92 1013.4
20260831103517 57 0.0 1.0 0.00 0.08 0.00 92 1013.3
20260831102517 56 0.0 0.0 0.00 0.08 0.00 92 1013.1
20260831101517 56 0.0 0.0 0.00 0.08 0.00 92 1012.9
20260831100517 56 0.0 1.0 0.00 0.08 0.00 92 1013.1
20260831095517 56 0.0 0.0 0.00 0.08 0.00 92 1013.1
20260831094517 56 0.0 0.0 0.00 0.08 0.00 92 1013.0
20260831093517 56 0.0 0.0 0.00 0.08 0.00 92 1012.9
20260831092517 56 0.0 0.0 0.00 0.08 0.00 93 1013.0
20260831091517 56 0.0 0.0 0.00 0.08 0.00 93 1012.9
20260831090517 56 0.0 0.0 0.00 0.08 0.00 92 1012.8
20260831085517 56 0.0 0.0 0.00 0.08 0.00 92 1012.9
20260831084517 56 0.0 0.0 0.00 0.08 0.00 92 1012.9
20260831083517 57 0.0 0.0 0.00 0.08 0.00 92 1013.1
20260831082517 57 0.0 0.0 0.00 0.08 0.00 92 1013.2
20260831081517 57 0.0 0.0 0.00 0.08 0.00 92 1013.2
20260831080557 57 0.0 0.0 0.00 0.08 0.00 92 1013.1
20260831075517 57 0.0 0.0 0.00 0.08 0.00 92 1013.0
20260831074517 58 0.0 0.0 0.00 0.08 0.00 92 1013.0
20260831073517 58 0.0 0.0 0.00 0.08 0.00 92 1013.0
20260831072517 58 0.0 0.0 0.00 0.08 0.00 92 1013.1
20260831071517 58 0.0 0.0 0.00 0.08 0.00 92 1013.0
20260831070517 59 0.0 0.0 0.00 0.08 0.00 92 1012.9